DECAYED

STARLINK-1162, 45058 (Decayed)

Orbit data source: Space-Track

STARLINK-1162, 45058 was a payload satellite owned by SpaceX/Seattle (US) in LEO that was launched on Wed, 29 Jan 2020 UTC via an FALCON 9 launch vehicle from the Air Force Eastern Test Range (AFETR). Payload-class satellites include a variety of spacecraft equipped with specific instruments for various scientific and technological missions. These include communications satellites like Starlink; space stations such as the ISS; scientific satellites like the Hubble; Earth observation satellites from companies like Planet Labs, Umbra, and HawkEye 360; GPS; miniature CubeSats for education and research; and military/defense satellites.

Not visible in the next 10 days
Identifier
45058, 2020-006Q
Orbit
Decayed
Country
Flag of USUS
Related business
Manufacturer
SpaceX/Seattle
Mission
Decayed Commercial Communications
Bus & Motor
STARLINK, Unknown motor
Mass
260 kg wet, ~248 kg dry
Launch date (UTC)
2020-01-29 (6 years ago)
Launch vehicle
FALCON 9
Launch site
Air Force Eastern Test Range (AFETR)
Object type
Payload
Rocket body
Debris
Shape & HBR
Box + 1 Pan, 10.1 m
Radar Cross Section
13.562 m², Large (>1 m²)

Expand to show TLE details & history
Last TLE update: 1 year ago

TLE from 1 year ago
0 STARLINK-1162
1 45058U 20006Q   25117.14323678  .15779295  12547-4  31098-3 0  9992
2 45058  53.0210 210.2139 0001174 160.4759 277.9150 16.47298388289891
Epoch: 2025-04-27T03:26Z
TLE epoch observation values (Epoch: 2025-04-27T03:26:15.657Z)
Latitude
51.64572°
Longitude
14.37441°
Altitude
152.48 km
Speed
7.821 km/s
True Right ascension
18h 45m 15s
True Declination
51° 27' 46"
Sunlit
Object was in daylight at epoch
Visualization orbit readout
Latitude
Unknown
Longitude
Unknown
Altitude
Unknown
Speed
Unknown
Apparent Right ascension
Unknown
Apparent Declination
Unknown
Sunlit
N/A
Visualization observer readout
Local Sidereal Time
16:50:54
Azimuth
Unknown
Elevation
Unknown
Doppler factor
Unknown
Orbital elements
Apogee altitude
147.518 km
Perigee altitude
145.986 km
Semi-major axis
6,524.889 km
Eccentricity
0.00012
Inclination
53.021°
RAAN
210.2139°
Arg. of periapsis
160.4759°
True anomaly
277.90167°
Mean anomaly
277.915°
Eccentric anomaly
277.90834°
Mean motion
4.11797 °/min
Orbital period
87.42 mins
BSTAR
0.00031098
Loading maneuver chart data...
Computing Atmospheric mass density...

Documentation

Showing up to 5 results
|